Tracking 20623 objects as of 4-Apr-2020
HD Live streaming from Space Station
objects crossing your sky now

COSMOS 1249 COOLANT

Track COSMOS 1249 COOLANT now!
10-day predictions


NORAD ID: 26509
Int'l Code: 1981-021L
Perigee: 884.0 km
Apogee: 979.9 km
Inclination: 65.0 °
Period: 103.5 minutes
Semi major axis: 7302 km
RCS: 0.006 m2 (small)
Launch date: March 5, 1981
Source: Commonwealth of Independent States (former USSR) (CIS)
Launch site: TYURATAM MISSILE AND SPACE COMPLEX (TTMTR)

Note: This is SATELLITE DEBRIS
aabbcc
Your satellite tracking list
Your tracking list is empty




NASA's NSSDC Master Catalog

Two Line Element Set (TLE):
1 26509U 81021L   20094.50905990 -.00000022 +00000-0 +54046-4 0  9994
2 26509 064.9631 133.5997 0065672 264.2087 095.1486 13.91091448344650
Source of the keplerian elements: AFSPC